Hourly Data Report for October 19, 2016

All times are specified in Local Standard Time (LST). Add 1 hour to adjust for Daylight Saving Time where and when it is observed.

PETAWAWA AWOS 2
ONTARIO

45°57'00.000" N
77°19'00.000" W
130.10 m
6106396
71625
YWA

Download Data

Hourly Data (October 2016)
Hourly Data Report for October 19, 2016
Temp Definition
°C
Dew Point Temp Definition
°C
Rel Hum Definition
%
Wind Dir Definition
10's deg

Wind Spd Definition
km/h
Visibility Definition
km
Stn Press Definition
kPa
Hmdx Definition


Wind Chill Definition


Weather Definition


TIME
00:00 9.9 9.9 100 34 4 14.5 99.20     LegendNANA
01:00 7.8 7.8 100 28 4 14.5 99.31     LegendNANA
02:00 7.6 7.6 100 30 4 11.3 99.40     LegendNANA
03:00 8.8 8.8 100 34 7 14.5 99.51     LegendNANA
04:00 10.2 9.0 92 31 15 14.5 99.62     LegendNANA
05:00 10.4 8.5 88 31 11 14.5 99.75     LegendNANA
06:00 7.9 7.2 95 26 6 14.5 99.84     LegendNANA
07:00 6.1 6.0 99 27 6 14.5 99.96     LegendNANA
08:00 9.1 7.4 89 32 6 14.5 100.11     LegendNANA
09:00 10.5 7.8 83 32 11 14.5 100.14     LegendNANA
10:00 12.2 7.4 72 33 9 14.5 100.17     LegendNANA
11:00 13.6 7.8 68 31 9 14.5 100.19     LegendNANA
12:00 14.8 7.3 61 32 7 14.5 100.20     LegendNANA
13:00 16.3 7.1 54 28 7 14.5 100.21     LegendNANA
14:00 17.7 7.2 50 28 9 14.5 100.18     LegendNANA
15:00 18.4 7.2 48 27 6 14.5 100.17     LegendNANA
16:00 17.2 8.4 56 30 4 14.5 100.20     LegendNANA
17:00 15.6 8.5 63 13 7 14.5 100.22     LegendNANA
18:00 14.6 9.0 69 16 4 14.5 100.26     LegendNANA
19:00 9.0 8.0 93   0 14.5 100.29     LegendNANA
20:00 7.7 7.3 97   0 14.5 100.34     LegendNANA
21:00 7.1 6.7 97   0 14.5 100.37     LegendNANA
22:00 5.8 5.7 99   0 14.5 100.40     LegendNANA
23:00 6.1 5.7 97   0 14.5 100.40     LegendNANA

Notes on Data Quality.

Legend

  • E = Estimated
  • M = Missing
  • NA = Not Available
  • ‡ = Partner data that is not subject to review by the National Climate Archives
Date modified: